RH
98 97 94 93 94 90 98 98 99 96 98 95 98 94 83 78 77 77 74 75 74 80 87 88 82 83 85 75 83 73 83 80 92 85 84 97 90 82 69 68 84 88 98 99 92 91 81 47 53 60 54 41 43 42
92 99 98 100 97 92 99 98 98 89 92 89 97 96 90 84 79 75 76 84 77 82 81 89 83 87 80 81 82 95 77 86 82 92 94 92 92 84 77 81 73 79 77 86 81 79 53 48 42 41 46 44 43 40
93 99 98 97 99 99 97 100 97 84 85 97 100 98 86 91 87 81 83 85 78 88 87 68 85 80 75 65 69 84 91 95 95 86 80 88 87 84 90 87 72 71 65 76 77 64 59 43 42 40 39 41 41 42
99 99 99 100 100 99 96 100 99 94 99 99 99 98 99 97 99 87 73 72 74 81 98 82 68 73 72 67 59 72 81 84 88 95 89 97 94 72 84 72 79 67 71 74 79 64 50 47 43 41 42 47 45 44
99 99 100 100 100 98 99 99 99 98 99 100 98 100 99 100 96 97 87 71 74 56 86 76 66 56 54 58 54 55 64 79 87 92 99 97 87 88 89 91 96 69 73 85 84 51 55 46 47 46 48 51 52 52
99 99 100 99 100 98 100 100 100 94 100 100 100 100 100 100 99 96 96 84 71 62 47 82 69 64 55 49 48 62 64 63 83 96 98 93 89 85 98 99 64 53 54 52 49 48 53 50 50 45 44 42 40 40
100 100 100 100 100 100 99 100 100 100 100 100 100 100 100 100 87 71 70 80 70 56 50 72 79 73 69 65 64 63 80 88 76 92 98 96 85 85 100 99 67 56 53 53 49 46 46 44 45 43 42 42 42 43
100 100 100 99 100 100 100 100 100 100 100 100 100 100 100 97 83 72 75 78 65 62 49 96 94 81 80 90 92 80 82 88 88 75 88 95 86 90 98 83 60 50 41 41 42 45 46 45 42 40 41 40 38 40
100 100 100 100 100 100 100 100 100 100 100 100 100 100 100 100 98 89 99 92 74 60 55 84 89 86 99 86 91 98 93 99 80 97 88 84 95 97 79 70 52 41 41 35 28 32 44 43 33 36 38 37 39 38
98 99 100 100 100 100 100 100 100 99 100 100 100 98 99 100 97 98 96 85 81 65 61 81 80 96 90 98 100 98 99 99 98 94 79 97 73 46 46 48 43 37 38 36 44 43 40 41 39 37 38 39 40 38
94 98 99 99 99 99 100 100 100 99 99 98 90 99 100 100 77 82 99 92 99 98 99 84 83 97 94 94 98 95 99 99 98 91 94 94 79 68 42 40 37 37 34 31 37 40 42 42 37 36 38 39 42 44
82 96 98 99 99 100 100 99 94 93 84 75 83 100 99 94 94 92 98 95 93 93 93 90 96 61 84 86 97 99 98 100 96 82 98 98 83 35 33 31 32 37 39 37 35 34 33 36 40 42 43 43 41 41
76 94 96 97 100 100 100 100 98 91 75 99 96 97 92 99 97 93 99 93 92 95 97 97 96 62 90 78 87 99 100 97 82 100 95 91 48 28 34 36 34 36 38 39 40 42 39 36 34 34 36 36 38 43
66 82 90 92 96 100 100 98 99 88 79 95 98 98 95 98 93 93 72 79 70 79 91 74 79 72 78 97 95 99 89 88 100 98 94 89 33 29 29 34 36 33 32 36 35 32 33 37 37 38 42 39 48 50
66 79 85 88 92 100 100 100 96 86 85 97 95 96 96 78 76 74 64 52 59 69 78 76 82 78 99 94 97 93 99 98 91 90 85 33 29 30 30 30 32 33 34 33 33 34 35 35 38 43 39 33 38 43
67 76 91 90 95 99 100 100 100 94 95 91 97 98 93 84 85 74 69 52 53 76 71 67 94 98 95 93 98 95 93 92 85 85 38 37 34 30 33 34 32 30 30 38 37 42 45 49 49 45 36 37 45 58
80 93 81 92 99 98 100 100 99 98 90 98 94 88 71 62 61 54 59 54 57 73 90 92 87 81 88 98 96 88 90 85 42 40 34 33 34 38 34 27 27 30 38 42 48 51 54 53 47 43 47 54 59 69
99 84 67 78 99 100 100 98 98 98 98 99 96 96 77 64 50 56 57 57 67 63 70 84 75 99 98 93 90 76 47 36 34 35 34 32 30 30 32 33 34 36 43 49 54 57 58 53 50 55 61 65 71 78
96 76 70 81 86 98 98 99 95 97 91 96 81 56 54 66 62 44 46 53 49 58 57 66 87 95 78 80 67 48 42 40 38 34 33 32 34 34 32 36 40 40 46 57 61 64 63 57 60 66 70 74 78 81
86 76 81 88 90 87 91 100 83 90 85 94 68 57 52 47 44 54 51 54 59 65 75 86 57 57 62 48 44 40 38 34 34 35 33 32 33 33 36 40 44 51 61 64 67 68 62 57 62 67 72 75 81 79
100 97 95 90 87 97 93 96 76 65 90 99 81 63 64 46 46 52 48 41 70 69 72 53 50 50 48 51 43 41 41 45 46 44 44 43 40 42 44 47 52 60 67 67 67 57 52 56 69 71 72 73 80 82
98 99 100 100 96 92 99 91 71 76 69 86 92 66 78 90 72 63 57 71 67 62 56 55 49 47 48 47 43 42 40 39 43 45 41 36 37 40 42 46 58 64 69 66 53 54 60 66 71 72 72 73 79 83
98 99 98 98 99 99 99 98 98 99 97 95 91 89 98 99 72 70 78 68 64 52 44 44 40 40 44 45 45 44 49 49 45 61 58 48 49 52 48 46 58 63 55 45 49 54 65 76 77 76 74 75 77 79
98 98 99 99 98 99 100 100 94 98 96 98 93 86 94 100 96 95 94 77 52 49 49 47 48 51 52 57 54 52 47 42 44 54 58 58 54 50 51 56 65 58 51 51 52 57 67 77 81 77 74 71 68 68
98 99 99 98 99 98 98 100 89 90 92 99 93 95 97 98 96 95 92 80 54 49 50 53 53 54 55 51 52 52 49 49 48 51 52 56 51 53 58 61 63 55 52 53 57 64 71 79 81 78 74 67 64 68
96 99 97 91 97 90 94 90 93 96 92 97 96 94 90 87 96 98 89 54 49 46 47 49 48 51 55 54 55 55 50 52 54 60 57 55 55 57 59 60 55 53 59 63 68 70 75 80 80 78 74 66 79 93
96 98 99 90 90 86 94 90 87 92 98 94 93 98 99 97 98 88 65 53 50 53 52 54 57 60 60 58 55 59 64 66 67 66 64 64 64 64 62 61 65 70 74 75 75 75 76 79 81 80 73 82 95 79
86 93 92 99 92 80 93 95 93 91 92 88 93 100 92 86 79 79 92 90 84 88 87 83 80 71 63 63 67 67 67 70 80 79 79 78 78 76 75 75 75 80 81 81 79 79 80 82 83 78 80 87 82 61
100 90 80 97 93 94 96 88 88 79 79 85 84 92 86 83 85 84 94 98 99 100 99 99 100 97 91 88 80 76 75 73 76 84 84 84 82 79 78 80 81 82 84 85 85 84 84 84 84 78 78 80 67 54
93 84 88 94 94 98 99 99 99 91 89 85 81 87 92 91 89 89 91 92 90 96 99 99 96 95 95 93 92 91 88 86 84 82 79 74 72 74 75 78 82 87 88 86 86 86 87 88 80 76 75 76 66 56
80 78 90 97 98 100 100 99 95 94 93 93 91 87 94 94 95 95 96 100 100 100 100 98 92 89 87 87 88 90 94 94 91 86 85 82 81 81 81 84 89 91 89 87 88 88 86 81 79 77 71 59 52 41
81 86 94 99 100 99 90 87 89 88 93 91 94 94 100 96 87 87 84 87 97 100 99 94 84 81 86 90 91 92 95 91 91 94 88 88 89 91 94 94 94 96 95 94 90 91 85 75 67 58 51 42 37 30
84 88 93 97 99 100 100 93 97 99 98 98 98 97 94 87 87 87 89 91 91 95 93 92 88 88 90 91 95 99 99 99 99 99 99 97 97 99 99 99 100 100 97 92 86 83 76 69 58 40 29 28 30 32
Wind_Speed
25 33 35 39 41 43 45 54 55 58 56 54 55 55 55 50 51 36 24 32 17 6 7 8 7 7 7 6 5 9 4 3 3 5 6 4 4 6 5 5 6 7 6 3 2 4 12 6 4 6 6 4 13 20
26 29 34 38 41 48 46 63 60 57 56 57 58 58 56 54 52 43 25 20 32 5 10 13 14 14 13 8 5 5 4 2 4 3 1 3 2 2 4 5 2 7 7 5 9 7 5 7 7 7 10 9 19 24
24 24 28 25 43 46 47 62 62 61 58 59 62 60 58 54 51 45 32 24 26 16 8 8 8 9 8 7 9 3 3 4 3 6 8 2 5 3 4 5 4 4 6 4 3 6 16 19 18 14 13 15 15 23
21 21 23 32 43 43 44 51 63 59 60 55 58 57 56 52 50 41 35 32 19 13 6 4 7 7 5 0 3 5 10 7 3 3 3 3 3 6 3 3 5 7 7 5 4 7 11 12 13 11 12 15 16 22
16 16 15 25 38 40 46 48 57 58 56 61 58 61 56 55 49 35 31 30 24 12 6 6 10 8 6 4 2 3 7 5 4 2 1 3 3 2 0 2 3 8 7 5 6 9 8 11 9 9 14 20 19 21
9 10 18 21 43 34 38 45 48 48 53 63 58 55 53 47 42 35 17 21 24 21 5 2 6 9 9 8 10 8 8 6 5 1 3 6 2 2 1 4 8 18 15 14 5 4 6 5 7 7 6 8 10 14
9 10 22 25 40 39 44 44 46 48 62 53 51 53 51 44 41 27 11 21 24 20 7 3 1 6 10 10 9 10 10 9 8 7 7 6 1 5 1 5 6 15 18 15 13 13 16 20 13 10 11 11 12 13
8 17 27 32 37 44 48 49 52 50 55 58 55 52 48 42 31 21 22 29 26 15 7 3 3 2 9 6 4 7 6 9 6 6 5 6 6 8 5 13 20 22 22 24 26 24 27 20 20 20 20 18 20 24
14 19 31 33 39 45 44 43 48 51 51 51 51 48 41 32 16 25 28 27 19 7 10 4 5 4 11 6 5 7 5 1 4 5 6 7 3 6 7 12 18 19 21 23 25 31 34 30 21 18 17 18 19 18
18 18 29 38 41 47 48 50 50 49 50 49 47 22 8 22 40 34 15 6 5 4 2 4 6 3 10 7 3 5 3 2 2 5 6 4 9 36 28 20 16 16 18 21 30 35 32 29 25 25 28 28 26 22
23 22 24 39 42 45 49 52 53 53 52 40 9 8 44 46 20 6 6 4 5 2 6 8 15 5 8 4 3 6 2 2 2 4 4 3 6 5 23 34 36 42 41 38 39 36 31 30 31 33 33 32 29 29
30 25 26 29 41 47 49 50 52 49 28 18 26 39 25 8 5 5 3 2 3 6 10 9 10 10 9 6 4 6 3 2 5 4 2 4 4 15 26 28 26 27 33 37 37 36 34 33 28 25 24 25 25 25
35 32 31 30 35 46 48 53 47 36 36 46 21 6 7 5 4 7 8 5 6 8 11 15 5 12 6 5 4 3 5 5 4 1 4 4 6 16 9 6 8 10 12 15 18 18 18 17 17 20 22 23 24 25
37 37 36 34 35 38 43 41 40 40 23 6 5 6 4 4 5 6 9 5 8 10 28 26 12 6 5 4 4 3 4 1 1 4 5 3 21 20 20 16 13 14 15 12 16 16 15 19 19 19 19 20 23 28
38 39 39 40 40 41 43 40 36 29 7 6 5 4 4 6 8 9 14 14 12 29 32 15 6 5 2 3 4 3 3 5 6 4 4 15 15 15 15 12 10 11 13 13 16 18 20 20 20 20 20 20 20 21
40 39 40 42 42 42 45 41 35 16 6 6 4 4 3 6 1 5 18 18 23 30 27 8 3 4 4 4 5 6 4 6 4 4 9 9 9 10 6 3 15 17 19 16 16 16 12 14 17 18 17 18 15 12
45 33 45 45 43 43 43 35 18 5 5 5 3 9 11 10 16 17 14 21 27 29 4 4 6 7 2 3 5 5 5 3 10 13 9 9 13 8 16 26 27 22 18 16 15 13 13 15 15 14 14 13 11 9
38 34 45 45 44 45 35 16 9 6 4 6 6 11 19 5 17 13 12 20 23 21 17 6 7 4 5 5 4 5 20 29 27 22 20 19 21 25 24 23 23 19 19 18 16 15 15 14 13 11 10 10 9 8
34 39 47 47 50 29 6 10 7 6 5 9 8 15 19 16 9 17 12 17 26 25 11 7 3 4 6 8 10 13 17 25 30 32 30 30 21 16 21 22 20 18 18 16 15 14 15 13 10 9 9 8 7 7
37 40 49 49 47 14 5 4 16 3 4 9 17 21 23 24 22 17 15 23 27 14 5 5 12 16 12 21 20 20 21 22 20 22 22 23 23 21 22 20 16 16 16 16 15 15 13 11 8 8 8 8 8 8
41 45 51 51 38 6 7 10 10 10 7 8 15 25 11 27 26 24 30 30 14 9 6 30 33 33 28 28 24 23 17 14 17 21 16 18 18 18 23 25 21 18 18 17 16 13 12 10 8 9 9 8 9 10
30 52 46 39 19 10 5 11 8 14 11 3 11 19 8 8 13 24 22 17 17 27 26 29 32 32 27 31 34 35 37 34 30 34 36 35 32 28 23 17 17 19 17 15 12 11 10 9 9 9 9 8 9 12
43 39 31 10 7 9 5 15 5 10 5 7 11 5 3 6 13 17 11 16 20 31 36 40 40 36 34 31 31 32 30 27 29 28 25 25 27 24 22 21 16 13 12 9 10 11 11 10 9 9 8 9 10 12
35 10 6 10 6 5 12 7 7 6 6 5 5 4 2 5 12 4 4 7 20 24 31 37 34 31 30 35 35 35 34 34 34 32 32 30 25 24 22 19 15 12 10 10 12 13 13 13 11 10 10 10 10 12
8 6 7 4 6 5 4 4 3 3 5 3 5 3 3 6 3 5 4 7 21 26 30 29 30 33 35 37 38 39 36 31 32 33 30 28 23 24 23 19 17 14 13 15 16 15 14 14 13 12 12 12 12 14
4 7 8 6 6 5 5 6 7 5 4 2 2 6 4 3 3 6 4 22 33 29 24 27 32 36 37 37 37 37 39 36 34 35 36 35 29 26 22 19 17 16 17 18 16 15 14 14 14 14 15 15 14 13
4 5 7 7 8 9 5 5 6 4 4 5 5 4 4 5 7 5 7 13 15 18 21 24 26 29 33 33 33 33 33 27 23 24 22 23 23 20 18 17 18 16 15 14 13 13 13 13 14 16 16 17 14 12
4 9 8 10 6 3 5 4 5 6 5 10 10 5 9 9 6 5 8 10 10 11 11 13 14 16 20 26 28 25 20 15 15 18 20 22 21 18 17 18 18 17 16 14 12 12 12 12 12 14 15 14 11 12
3 11 13 3 4 5 2 4 5 5 11 16 6 4 5 6 6 7 8 9 10 11 10 8 8 9 9 8 11 14 15 15 15 17 19 19 18 19 20 19 19 18 16 14 13 12 11 10 12 12 10 10 11 11
4 7 6 3 4 1 2 3 5 10 8 9 6 5 5 5 8 9 9 11 13 12 11 11 10 10 9 8 8 9 11 15 17 17 18 18 16 16 18 19 18 16 14 14 13 16 17 15 15 16 16 16 16 14
9 5 5 4 3 2 7 10 9 9 6 5 5 3 4 3 5 10 12 11 9 8 9 10 10 11 11 11 11 12 13 15 18 19 20 20 20 20 20 19 17 14 12 12 14 17 19 20 19 18 18 17 15 14
3 3 4 4 1 10 7 2 3 2 2 2 1 2 4 3 3 4 6 9 10 9 9 9 8 6 8 10 11 12 13 15 17 17 19 20 21 20 18 15 14 13 12 13 15 16 17 16 16 15 14 13 13 13
5 7 7 6 3 3 5 5 2 2 2 2 2 3 4 3 4 4 4 7 8 6 5 5 5 6 8 9 11 13 15 17 17 17 15 14 12 11 12 14 15 14 13 14 15 15 15 13 12 12 13 13 13 11
Wind_Direction
244 246 241 248 235 223 209 206 200 201 196 196 197 194 189 191 191 185 187 195 178 107 100 112 118 150 148 179 155 166 141 214 88 182 199 203 181 215 188 178 172 170 177 199 127 221 261 222 110 184 225 291 197 188
251 240 249 239 222 207 206 200 198 196 197 199 197 193 189 191 191 189 179 173 196 157 126 121 104 105 96 75 161 149 164 126 155 114 110 95 224 183 167 239 146 223 190 187 186 208 232 197 225 222 290 267 211 204
255 242 245 227 202 200 200 196 195 195 197 196 198 188 191 188 188 192 180 161 161 148 142 138 144 117 108 80 53 133 87 118 121 142 155 151 264 149 180 233 211 255 170 219 101 228 238 243 245 255 266 269 236 218
257 255 229 199 193 186 185 192 194 190 196 195 187 188 187 184 186 181 181 180 170 139 118 185 169 193 187 218 21 29 116 99 132 169 187 151 189 196 216 228 192 210 158 191 265 284 278 268 263 250 259 238 229 222
245 242 194 185 185 187 182 188 185 186 194 187 191 185 182 181 181 178 187 192 197 176 149 150 171 172 153 178 242 259 284 311 17 22 282 224 210 162 311 39 241 190 186 174 223 228 236 261 271 247 230 220 231 228
239 198 176 174 181 183 181 182 187 182 199 188 188 178 168 169 168 157 141 180 185 187 126 103 182 196 212 202 206 218 217 251 247 55 319 266 189 108 134 238 234 220 220 221 202 212 233 232 228 263 243 256 250 247
218 146 171 167 142 169 172 164 166 174 174 174 173 162 162 158 160 162 167 164 162 160 140 92 203 178 174 171 190 205 202 202 196 166 200 271 295 180 241 235 235 223 235 240 243 248 257 254 246 260 264 273 279 264
182 139 159 168 163 155 150 150 161 160 159 157 154 153 153 152 147 131 128 157 164 144 143 126 240 180 171 163 197 191 189 204 223 211 201 203 198 186 243 232 235 243 268 265 263 255 263 268 278 276 274 272 265 258
172 143 147 154 151 167 174 167 152 149 146 146 147 147 141 138 119 125 138 152 157 148 162 155 153 199 165 156 175 168 184 156 220 217 215 176 216 219 230 200 229 235 232 243 259 259 264 268 266 270 269 269 266 267
170 150 144 148 144 144 145 143 141 141 141 140 137 126 95 123 130 126 119 123 145 215 172 185 175 156 159 158 146 125 160 219 242 240 191 202 246 244 245 251 264 265 251 245 248 254 255 257 261 267 269 273 270 262
173 158 148 148 143 143 143 143 144 141 143 136 111 91 129 132 116 82 106 126 160 213 204 205 191 139 163 130 143 190 153 185 240 265 175 253 261 230 249 248 254 249 245 243 243 250 257 270 277 277 274 269 265 267
168 167 156 157 153 150 148 147 148 145 147 135 131 132 125 93 93 100 99 135 200 217 188 181 186 158 145 147 117 168 186 177 246 158 142 263 269 255 247 252 257 253 250 248 252 261 269 272 274 278 277 275 270 269
167 169 163 162 158 156 153 153 151 139 127 123 116 115 133 154 127 151 172 195 209 185 163 154 131 160 135 155 123 178 210 217 137 148 226 224 268 269 272 258 291 278 266 262 258 258 262 270 276 277 280 279 275 272
169 166 166 164 165 165 163 163 159 141 123 101 115 125 153 164 192 204 195 155 185 163 153 145 130 147 156 126 134 211 232 102 229 233 231 235 241 259 275 281 285 289 291 271 276 278 284 283 279 282 284 287 281 274
168 168 166 167 168 168 171 168 163 157 116 107 122 124 177 189 190 227 190 150 147 154 148 137 103 133 156 133 185 181 199 242 218 221 214 247 261 272 288 296 310 322 310 292 289 282 278 286 295 292 290 295 297 285
167 165 170 169 169 170 170 168 161 162 117 136 145 136 132 115 203 192 191 169 153 154 152 155 137 131 191 180 193 202 195 223 242 214 232 274 263 277 263 305 327 326 311 295 291 298 292 292 293 289 292 304 307 292
166 167 173 170 169 169 170 157 160 135 156 146 193 198 184 177 190 204 196 183 168 148 168 150 170 198 112 189 210 188 211 211 244 258 286 283 280 268 292 304 305 312 305 302 294 286 289 298 294 295 302 304 301 289
166 172 168 167 169 168 162 167 153 152 163 180 165 190 188 198 202 192 200 174 171 182 173 203 135 154 201 190 240 231 235 247 256 263 268 269 278 284 294 299 305 300 294 283 277 283 296 301 298 301 304 305 295 277
164 168 168 169 168 162 120 176 173 168 182 156 184 187 201 218 209 204 203 200 200 194 195 185 203 190 213 215 213 242 250 255 259 262 267 275 284 300 302 304 297 286 281 272 272 282 289 286 286 293 300 299 282 254
168 169 168 169 165 153 139 147 190 198 188 195 194 197 206 221 228 211 203 202 204 206 201 201 226 232 228 236 247 254 271 282 274 264 276 288 293 296 295 294 294 285 271 269 275 285 285 284 292 302 300 289 268 247
163 171 174 171 171 147 166 157 175 202 181 188 199 193 198 207 215 220 227 230 211 214 221 230 238 243 246 244 245 266 271 274 278 279 287 307 317 298 291 292 283 268 261 270 280 280 283 281 281 294 298 287 256 235
176 166 164 170 186 207 181 182 177 164 179 213 166 192 175 181 202 214 212 201 226 227 232 233 236 241 248 248 249 251 256 261 273 279 283 288 289 286 290 302 277 264 268 278 277 285 287 274 274 288 287 266 239 229
155 150 153 145 150 184 169 151 137 163 149 172 170 168 188 174 188 178 193 218 228 234 236 237 240 244 247 252 254 255 247 251 272 277 270 273 273 274 282 285 277 263 261 273 290 286 275 266 266 270 260 241 229 221
152 133 147 163 145 164 151 182 162 145 134 167 171 178 193 165 156 198 234 214 241 247 242 243 246 252 255 251 250 252 254 258 263 261 264 274 268 271 277 279 261 252 252 267 281 277 263 255 253 252 244 232 225 216
140 172 154 151 153 136 134 141 142 145 160 178 131 158 169 155 179 225 241 248 243 247 248 245 241 241 245 252 258 258 256 249 256 259 262 253 269 278 275 266 254 247 255 273 275 270 255 247 244 242 234 226 222 219
131 187 174 159 161 145 159 143 175 165 143 117 147 120 122 174 197 245 228 238 241 248 255 249 246 247 246 248 254 256 257 256 257 255 256 260 267 270 267 260 255 259 277 277 267 262 253 247 243 237 228 221 229 217
160 182 184 193 178 148 101 109 139 121 139 159 155 153 147 184 227 240 218 224 226 233 242 249 252 252 253 257 259 256 260 266 263 263 259 257 259 259 257 254 264 279 271 266 260 258 255 252 242 231 224 224 223 207
160 163 162 169 148 139 124 118 140 176 176 161 144 174 181 199 225 201 212 232 239 250 258 258 265 264 260 254 256 262 265 271 261 249 246 248 253 252 252 256 253 253 260 262 261 250 241 236 229 223 224 215 206 203
144 144 135 49 89 75 126 161 187 172 157 171 168 187 218 202 196 202 214 226 247 255 252 260 268 273 273 269 257 247 247 252 250 241 245 251 258 259 254 252 252 257 262 262 256 235 222 219 210 201 202 205 203 203
163 167 96 81 91 137 171 155 168 152 165 166 159 155 190 218 219 228 244 254 263 271 252 247 249 249 250 247 248 242 237 239 237 243 249 253 259 254 249 251 257 262 257 250 231 209 196 190 189 189 197 202 202 206
135 129 102 103 131 130 119 127 125 134 142 149 170 198 184 215 254 256 251 252 245 241 241 236 238 239 240 241 243 243 245 242 244 242 244 248 250 251 253 256 255 244 237 227 210 200 195 191 191 194 195 198 204 208
102 113 121 96 91 140 127 128 104 81 84 103 111 156 165 195 252 253 251 225 224 228 238 235 230 232 242 246 251 256 255 251 250 249 249 251 257 259 255 239 220 212 207 201 195 191 193 194 191 193 197 199 197 194
103 89 93 102 108 168 152 124 93 113 117 128 173 203 188 204 254 246 275 231 226 221 241 255 235 258 266 262 261 262 265 261 257 252 250 247 243 238 215 197 191 192 190 188 185 185 185 185 185 184 181 182 180 181